Location: Poprad
(49.0500°N, 20.3000°E)
Time: 06:30:02
(UTC+02:00)

Oscar 11 - Visible Passes

Search period start: 18 April 2024 00:00
Search period end: 28 April 2024 00:00
Orbit: 605 x 614 km, 97.7° (Epoch: 17 April)

Date Brightness Start Highest point End Pass type
(mag) Time Alt. Az. Time Alt. Az. Time Alt. Az.
18 Apr 9.3 03:42:38 10° NE 03:46:03 22° E 03:49:26 10° SE visible
19 Apr 8.8 03:56:17 10° NNE 04:00:06 30° E 04:03:53 10° SSE visible
20 Apr 8.3 04:10:02 10° NNE 04:14:07 41° E 04:18:10 10° S visible
21 Apr 7.7 04:23:51 10° NNE 04:28:06 57° E 04:32:19 10° S visible
22 Apr 7.2 04:37:43 10° NNE 04:42:03 79° ESE 04:46:20 10° S visible
23 Apr 9.8 03:17:32 10° ENE 03:19:30 13° E 03:21:27 10° ESE visible
23 Apr 7.0 04:51:39 10° N 04:55:58 76° WNW 05:00:13 10° SSW visible
24 Apr 9.7 03:30:41 10° NE 03:33:34 17° E 03:36:26 10° SE visible
25 Apr 9.3 03:44:07 10° NE 03:47:36 23° E 03:51:02 10° SSE visible
26 Apr 8.8 03:57:44 10° NNE 04:01:35 31° E 04:05:24 10° SSE visible
27 Apr 8.2 04:11:25 10° NNE 04:15:33 43° E 04:19:37 10° S visible
